FW2345 Weather Reports


time (UTC)temp
C
wind
direction
speed
KPH
gust
KPH
rain 1hr
cm
rain 24hr
cm
rain mn
cm
humidity
%
barometer
mb
20260504081539 6 0.0 0.0 0.00 0.00 0.00 60 1011.3
20260504050025 6 0.0 0.0 0.00 0.00 0.00 59 1011.2
20260504044524 7 0.0 0.0 0.00 0.00 0.00 59 1011.1
20260504043023 7 0.0 0.0 0.00 0.00 0.00 58 1011.1
20260504041536 7 0.0 0.0 0.00 0.00 0.00 58 1010.9
20260504040022 7 0.0 0.0 0.00 0.00 0.00 57 1010.7
20260504034518 7 0.0 0.0 0.00 0.00 0.00 57 1010.5
20260504033017 7 0.0 0.0 0.00 0.00 0.00 56 1010.6
20260504031517 7 0.0 0.0 0.00 0.00 0.00 57 1010.7
20260504030016 7 0.0 0.0 0.00 0.00 0.00 56 1010.7
20260504024516 7 0.0 0.0 0.00 0.00 0.00 55 1010.7
20260504023015 7 0.0 0.0 0.00 0.00 0.00 55 1010.8
20260504021515 7 0.0 0.0 0.00 0.00 0.00 54 1010.9
20260504020023 8 0.0 0.0 0.00 0.00 0.00 53 1010.9
20260504014518 8 0.0 0.0 0.00 0.00 0.00 52 1010.8
20260504013013 8 0.0 0.0 0.00 0.00 0.00 51 1010.5
20260504011514 8 0.0 0.0 0.00 0.00 0.00 51 1010.5
20260504010013 8 0.0 0.0 0.00 0.00 0.00 49 1010.4
20260504004515 9 0.0 0.0 0.00 0.00 0.00 48 1010.2
20260504003012 10 0.0 0.0 0.00 0.00 0.00 47 1010.1
20260504001521 10 0.0 0.0 0.00 0.00 0.00 46 1010.1
20260504000012 10 0.0 0.0 0.00 0.00 0.00 45 1009.9
20260503234511 11 0.0 0.0 0.00 0.00 0.00 44 1009.7
20260503233017 11 0.0 0.0 0.00 0.00 0.00 43 1009.6
20260503231510 11 0.0 0.0 0.00 0.00 0.00 42 1009.5
20260503230025 11 0.0 0.0 0.00 0.00 0.00 43 1009.4
20260503224512 11 0.0 0.0 0.00 0.00 0.00 41 1009.4
20260503223009 11 0.0 0.0 0.00 0.00 0.00 39 1009.5
20260503221509 11 0.0 0.0 0.00 0.00 0.00 41 1009.3
20260503220008 11 0.0 0.0 0.00 0.00 0.00 40 1009.4
20260503214522 12 0.0 0.0 0.00 0.00 0.00 37 1009.2
20260503213006 12 0.0 0.0 0.00 0.00 0.00 37 1009.1
20260503211506 11 0.0 0.0 0.00 0.00 0.00 37 1009.0
20260503210007 11 0.0 0.0 0.00 0.00 0.00 35 1008.9
20260503204506 12 0.0 0.0 0.00 0.00 0.00 34 1008.7
20260503203103 12 0.0 0.0 0.00 0.00 0.00 34 1009.0
20260503201501 12 0.0 0.0 0.00 0.00 0.00 36 1009.0
20260503200100 11 0.0 0.0 0.00 0.00 0.00 37 1009.2
20260503194607 11 0.0 0.0 0.00 0.00 0.00 36 1009.3
20260503193110 11 0.0 0.0 0.00 0.00 0.00 36 1009.6
20260503191611 11 0.0 0.0 0.00 0.00 0.00 37 1009.7
20260503190053 11 0.0 0.0 0.00 0.00 0.00 37 1009.8
20260503184550 10 0.0 0.0 0.00 0.00 0.00 40 1010.0
20260503183049 10 0.0 0.0 0.00 0.00 0.00 40 1010.1
20260503181551 10 0.0 0.0 0.00 0.00 0.00 40 1010.1
20260503180056 10 0.0 0.0 0.00 0.00 0.00 42 1010.3
20260503174552 9 0.0 0.0 0.00 0.00 0.00 42 1010.4
20260503173042 8 0.0 0.0 0.00 0.00 0.00 43 1010.3
20260503171541 8 0.0 0.0 0.00 0.00 0.00 42 1010.5